Location: Clifton Park
(41.4873°N, 81.8024°W)
Time: 19:51:03
(UTC+00:00)

SL-16 R/B - Pass Details

Date: 21 January 2020
Orbit: 842 x 846 km, 71.0° (Epoch: 21 February)

Event Time Altitude Azimuth Distance (km) Brightness Sun altitude
Rises 11:01:16 0° 184° (S) 3,384 5.4 -19.9°
Reaches altitude 10° 11:03:47 10° 178° (S) 2,454 4.7 -19.4°
Maximum altitude 11:09:07 45° 107° (ESE) 1,130 3.3 -18.4°
Drops below altitude 10° 11:14:30 10° 36° (NE) 2,472 4.9 -17.4°
Sets 11:17:02 0° 30° (NNE) 3,412 5.6 -17.0°
